Change the Weather History Date:

Thursday, January 2, 2014

  Actual Average Record
Temperature  
Mean Temperature 6 °F 22 °F  
Max Temperature 13 °F 32 °F 61 °F (1990)
Min Temperature -1 °F 12 °F -21 °F (1968)
Degree Days  
Heating Degree Days 59 43  
Month to date heating degree days 109 86  
Since 1 July heating degree days 2904 2832  
Cooling Degree Days 0 0  
Month to date cooling degree days 0 0  
Year to date cooling degree days 0 0  
Moisture  
Dew Point 0 °F    
Average Humidity 80    
Maximum Humidity 87    
Minimum Humidity 72    
Precipitation  
Precipitation 0.46 in 0.09 in 0.95 in (1959)
Month to date precipitation 0.46 0.18  
Year to date precipitation 0.46 0.18  
Snow  
Snow 0.00 in 0.60 in 10.40 in (1987)
Month to date snowfall 0.0 1.1  
Since 1 July snowfall 20.1 18.2  
Snow Depth 7.00 in    
Sea Level Pressure  
Sea Level Pressure 30.20 in    
Wind  
Wind Speed 9 mph (NNE)    
Max Wind Speed 17 mph    
Max Gust Speed 23 mph    
Visibility 2 miles    
Events Snow    
T = Trace of Precipitation, MM = Missing Value Source: NWS Daily Summary

Daily Weather History Graph

Daily Weather History Graph

Search for Another Location

Airport or City:

Trip Planner

Search our weather history database for the weather conditions in past years. The results will help you decide how hot, cold, wet, or windy it might be!

Date:

Astronomy

Jan. 02, 2014 Rise Set
Actual Time 7:18 AM EST 4:22 PM EST
Civil Twilight 6:45 AM EST 4:54 PM EST
Nautical Twilight 6:09 AM EST 5:30 PM EST
Astronomical Twilight 5:35 AM EST 6:04 PM EST
Moon 7:54 AM EST (1/2) 6:19 PM EST (1/2)
Length of Visible Light 10h 08m
Length of Day
9h 04m
New Moon, 2% of the Moon is Illuminated
Jan 2
New Moon
Jan 7
First Quarter
Jan 15
Full
Jan 24
Last Quarter
Jan 30
New

Hourly Weather History & Observations

Time (EST) Temp. Windchill Dew Point Humidity Pressure Visibility Wind Dir Wind Speed Gust Speed Precip Events Conditions
12:51 AM 12.9 °F 5.2 °F 6.1 °F 74% 30.37 in 10.0 mi NNE 4.6 mph - N/A   Overcast
1:51 AM 12.0 °F 4.1 °F 6.1 °F 77% 30.37 in 3.0 mi North 4.6 mph - 0.00 in Snow Light Snow
2:46 AM 12.2 °F 6.1 °F 6.8 °F 79% 30.35 in 2.5 mi North 3.5 mph - 0.00 in Snow Light Snow
2:51 AM 12.0 °F 5.9 °F 6.1 °F 77% 30.37 in 2.5 mi North 3.5 mph - 0.00 in Snow Light Snow
3:25 AM 12.0 °F 2.7 °F 6.1 °F 77% 30.34 in 2.0 mi North 5.8 mph - 0.01 in Snow Light Snow
3:33 AM 12.0 °F 2.7 °F 6.1 °F 77% 30.33 in 1.8 mi North 5.8 mph - 0.02 in Snow Light Snow
3:51 AM 10.9 °F 1.4 °F 6.1 °F 81% 30.35 in 1.8 mi North 5.8 mph - 0.02 in Snow Light Snow
4:13 AM 10.9 °F 2.9 °F 6.1 °F 81% 30.34 in 1.2 mi NNW 4.6 mph - 0.01 in Snow Light Snow
4:37 AM 10.0 °F -0.9 °F 6.1 °F 84% 30.34 in 1.0 mi North 6.9 mph - 0.02 in Snow Light Snow
4:51 AM 10.0 °F 0.4 °F 6.1 °F 84% 30.36 in 1.0 mi North 5.8 mph - 0.02 in Snow Light Snow
5:03 AM 10.0 °F 0.4 °F 6.1 °F 84% 30.33 in 1.0 mi North 5.8 mph - 0.01 in Snow Light Snow
5:17 AM 10.0 °F 0.4 °F 6.1 °F 84% 30.33 in 1.8 mi North 5.8 mph - 0.02 in Snow Light Snow
5:34 AM 10.0 °F 3.6 °F 6.1 °F 84% 30.34 in 2.0 mi North 3.5 mph - 0.02 in Snow Light Snow
5:51 AM 10.0 °F 1.8 °F 6.1 °F 84% 30.36 in 1.5 mi North 4.6 mph - 0.02 in Snow Light Snow
6:00 AM 10.0 °F 3.6 °F 6.1 °F 84% 30.34 in 1.2 mi North 3.5 mph - 0.01 in Snow Light Snow
6:51 AM 10.0 °F 0.4 °F 6.1 °F 84% 30.35 in 1.0 mi North 5.8 mph - 0.03 in Snow Light Snow
7:21 AM 10.0 °F 3.6 °F 6.1 °F 84% 30.32 in 1.8 mi NNW 3.5 mph - 0.01 in Snow Light Snow
7:32 AM 10.0 °F 3.6 °F 6.1 °F 84% 30.32 in 0.8 mi NW 3.5 mph - 0.01 in Snow Light Snow
7:46 AM 10.4 °F 0.8 °F 6.8 °F 85% 30.32 in 1.0 mi NW 5.8 mph - 0.02 in Snow Light Snow
7:51 AM 10.0 °F 1.8 °F 6.1 °F 84% 30.34 in 1.0 mi NW 4.6 mph - 0.02 in Snow Light Snow
8:07 AM 10.0 °F 0.4 °F 6.1 °F 84% 30.32 in 0.8 mi NW 5.8 mph - 0.00 in Snow Light Snow
8:32 AM 10.0 °F -1.9 °F 6.1 °F 84% 30.31 in 1.0 mi NNW 8.1 mph - 0.01 in Snow Light Snow
8:51 AM 10.0 °F 0.4 °F 6.1 °F 84% 30.34 in 1.0 mi NNW 5.8 mph - 0.02 in Snow Light Snow
9:12 AM 10.9 °F 2.9 °F 7.0 °F 84% 30.31 in 0.8 mi NNE 4.6 mph - 0.00 in Snow Light Snow
9:51 AM 10.0 °F -2.9 °F 5.0 °F 80% 30.33 in 0.8 mi NE 9.2 mph - 0.02 in Snow Light Snow
10:39 AM 9.0 °F -4.2 °F 3.0 °F 77% 30.27 in 1.0 mi NE 9.2 mph - 0.01 in Snow Light Snow
10:51 AM 9.0 °F -5.1 °F 3.0 °F 77% 30.30 in 0.8 mi ENE 10.4 mph - 0.01 in Snow Light Snow
11:02 AM 8.1 °F -6.2 °F 1.9 °F 76% 30.27 in 1.0 mi ENE 10.4 mph - 0.01 in Snow Light Snow
11:34 AM 8.1 °F -3.2 °F 1.9 °F 76% 30.24 in 0.8 mi ENE 6.9 mph - 0.02 in Snow Light Snow
11:51 AM 8.1 °F -6.2 °F 3.0 °F 80% 30.24 in 0.5 mi ENE 10.4 mph - 0.03 in Snow Snow
11:58 AM 7.0 °F -6.6 °F 1.9 °F 80% 30.20 in 0.5 mi ENE 9.2 mph - 0.00 in Snow Snow
12:12 PM 7.0 °F -7.5 °F 1.9 °F 80% 30.20 in 0.8 mi NE 10.4 mph - 0.01 in Snow Light Snow
12:22 PM 7.0 °F -9.1 °F -0.0 °F 73% 30.19 in 1.5 mi NE 12.7 mph - 0.01 in Snow Light Snow
12:29 PM 6.1 °F -11.6 °F -0.0 °F 76% 30.19 in 1.2 mi NE 15.0 mph - 0.01 in Snow Light Snow
12:46 PM 6.8 °F -8.6 °F -0.4 °F 72% 30.19 in 1.8 mi NE 11.5 mph - 0.02 in Snow Light Snow
12:51 PM 6.1 °F -10.2 °F -0.9 °F 73% 30.21 in 2.0 mi ENE 12.7 mph - 0.02 in Snow Light Snow
1:00 PM 6.1 °F -9.5 °F -0.9 °F 73% 30.18 in 5.0 mi NE 11.5 mph - 0.00 in Snow Light Snow
1:51 PM 5.0 °F -10.0 °F -2.0 °F 73% 30.19 in 3.0 mi NE 10.4 mph - 0.00 in Snow Light Snow
2:05 PM 5.0 °F -9.1 °F -0.9 °F 76% 30.16 in 2.5 mi NE 9.2 mph - 0.00 in Snow Light Snow
2:30 PM 5.0 °F -10.8 °F -0.9 °F 76% 30.16 in 1.8 mi NE 11.5 mph 18.4 mph 0.00 in Snow Light Snow
2:42 PM 5.0 °F -11.6 °F -2.0 °F 73% 30.14 in 2.0 mi ENE 12.7 mph 19.6 mph 0.00 in Snow Light Snow
2:51 PM 3.9 °F -12.2 °F -2.0 °F 76% 30.17 in 2.5 mi NE 11.5 mph - 0.00 in Snow Light Snow
3:07 PM 3.9 °F -13.0 °F -2.9 °F 73% 30.13 in 3.0 mi NE 12.7 mph - 0.01 in Snow Light Snow
3:22 PM 3.9 °F -13.7 °F -2.9 °F 73% 30.12 in 1.8 mi NE 13.8 mph - 0.01 in Snow Light Snow
3:34 PM 3.0 °F -12.5 °F -2.9 °F 76% 30.12 in 1.0 mi NE 10.4 mph - 0.01 in Snow Light Snow
3:42 PM 3.0 °F -13.3 °F -2.9 °F 76% 30.11 in 0.5 mi NE 11.5 mph 19.6 mph 0.02 in Snow Snow
3:51 PM 3.0 °F -12.5 °F -2.0 °F 80% 30.14 in 0.5 mi NE 10.4 mph - 0.02 in Snow Snow
4:06 PM 3.0 °F -13.3 °F -2.9 °F 76% 30.11 in 1.5 mi NE 11.5 mph - 0.00 in Snow Light Snow
4:15 PM 3.0 °F -11.5 °F -2.9 °F 76% 30.11 in 1.5 mi NE 9.2 mph - 0.01 in Snow Light Snow
4:33 PM 1.9 °F -12.9 °F -2.9 °F 80% 30.11 in 2.5 mi NNE 9.2 mph - 0.01 in Snow Light Snow
4:51 PM 1.9 °F -13.8 °F -4.0 °F 76% 30.13 in 2.5 mi NE 10.4 mph 19.6 mph 0.01 in Snow Light Snow
4:57 PM 1.9 °F -16.2 °F -4.0 °F 76% 30.11 in 1.8 mi NE 13.8 mph - 0.00 in Snow Light Snow
5:07 PM 1.9 °F -11.8 °F -4.0 °F 76% 30.12 in 1.0 mi NE 8.1 mph 18.4 mph 0.01 in Snow Light Snow
5:24 PM 1.9 °F -13.8 °F -4.0 °F 76% 30.10 in 1.8 mi NNE 10.4 mph - 0.01 in Snow Light Snow
5:51 PM 1.9 °F -10.6 °F -2.9 °F 80% 30.13 in 1.0 mi NNE 6.9 mph - 0.02 in Snow Light Snow
5:57 PM 1.0 °F -15.8 °F -4.0 °F 79% 30.10 in 0.8 mi NNE 11.5 mph 17.3 mph 0.01 in Snow Light Snow
6:24 PM 1.0 °F -16.6 °F -5.1 °F 75% 30.08 in 1.2 mi NE 12.7 mph 23.0 mph 0.03 in Snow Light Snow
6:46 PM 1.4 °F -18.2 °F -5.8 °F 72% 30.08 in 1.0 mi NE 16.1 mph 21.9 mph 0.04 in Snow Light Snow
6:51 PM 1.0 °F -16.6 °F -5.1 °F 75% 30.11 in 1.2 mi NE 12.7 mph 21.9 mph 0.05 in Snow Light Snow
6:59 PM 1.0 °F -12.9 °F -5.1 °F 75% 30.08 in 1.5 mi NNE 8.1 mph - 0.00 in Snow Light Snow
7:17 PM -0.0 °F -14.2 °F -6.0 °F 76% 30.08 in 1.2 mi North 8.1 mph 18.4 mph 0.00 in Snow Light Snow
7:51 PM -0.0 °F -17.1 °F -6.0 °F 76% 30.08 in 1.5 mi North 11.5 mph 21.9 mph 0.02 in Snow Light Snow
8:00 PM -0.0 °F -14.2 °F -6.0 °F 76% 30.06 in 1.0 mi North 8.1 mph 19.6 mph 0.00 in Snow Light Snow
8:11 PM -0.9 °F -18.3 °F -7.1 °F 75% 30.05 in 1.0 mi NNE 11.5 mph - 0.01 in Snow Light Snow
8:26 PM -0.9 °F -19.9 °F -7.1 °F 75% 30.04 in 1.2 mi NNE 13.8 mph - 0.02 in Snow Light Snow
8:51 PM -0.9 °F -19.9 °F -7.1 °F 75% 30.05 in 1.0 mi North 13.8 mph - 0.03 in Snow Light Snow
9:04 PM -0.9 °F -18.3 °F -7.1 °F 75% 30.02 in 0.8 mi NNE 11.5 mph 21.9 mph 0.01 in Snow Light Snow
9:15 PM -0.9 °F -18.3 °F -6.0 °F 79% 30.02 in 1.0 mi North 11.5 mph - 0.02 in Snow Light Snow
9:48 PM -0.4 °F -16.7 °F -7.6 °F 72% 29.98 in 0.8 mi North 10.4 mph - 0.03 in Snow Light Snow
9:51 PM -0.9 °F -19.1 °F -7.1 °F 75% 30.01 in 0.8 mi North 12.7 mph 19.6 mph 0.04 in Snow Light Snow
10:08 PM -0.9 °F -17.4 °F -7.1 °F 75% 29.98 in 1.0 mi North 10.4 mph - 0.01 in Snow Light Snow
10:51 PM -0.9 °F -16.4 °F -7.1 °F 75% 29.98 in 1.2 mi North 9.2 mph - 0.03 in Snow Light Snow
11:51 PM -0.9 °F -15.3 °F -6.0 °F 79% 29.95 in 1.2 mi North 8.1 mph - 0.03 in Snow Light Snow